Milan, Italy

4:35 AM CEST on October 17, 2017 (GMT +0200)
Malpensa

Weather History for LIMC - December, 2013

Change the Weather History Date:

Sunday, December 1, 2013

  Actual Average Record
Temperature  
Mean Temperature 37 °F -  
Max Temperature 51 °F 44 °F 58 °F (2015)
Min Temperature 23 °F 26 °F 19 °F (1999)
Degree Days  
Heating Degree Days 28    
Moisture  
Dew Point 28 °F    
Average Humidity 81    
Maximum Humidity 100    
Minimum Humidity 43    
Precipitation  
Precipitation 0.00 in 0.07 in - ()
Sea Level Pressure  
Sea Level Pressure 30.17 in    
Wind  
Wind Speed 5 mph ()    
Max Wind Speed 10 mph    
Max Gust Speed -    
Visibility 3.9 miles    
Events      
Averages and records for this station are not official NWS values.
T = Trace of Precipitation, MM = Missing Value Source: Averaged Metar Reports

Daily Weather History Graph

Daily Weather History Graph

Search for Another Location

Airport or City:

Trip Planner

Search our weather history database for the weather conditions in past years. The results will help you decide how hot, cold, wet, or windy it might be!

Date:

Astronomy

Dec. 01, 2013 Rise Set
Actual Time 7:45 AM CET 4:42 PM CET
Civil Twilight 7:11 AM CET 5:16 PM CET
Nautical Twilight 6:34 AM CET 5:53 PM CET
Astronomical Twilight 5:58 AM CET 6:29 PM CET
Moon 5:40 AM CET (12/1) 3:43 PM CET (12/1)
Length of Visible Light 10h 04m
Length of Day
8h 57m
Waning Crescent, 3% of the Moon is Illuminated
Dec 1
Waning Crescent
Dec 3
New
Dec 9
First Quarter
Dec 17
Full
Dec 25
Last Quarter

Hourly Weather History & Observations

Time (CET) Temp. Windchill Dew Point Humidity Pressure Visibility Wind Dir Wind Speed Gust Speed Precip Events Conditions
12:20 AM 28.4 °F 21.2 °F 26.6 °F 93% 30.21 in 3.7 mi North 6.9 mph - N/A   Unknown
12:50 AM 28.4 °F 20.4 °F 26.6 °F 93% 30.21 in 3.7 mi NNW 8.1 mph - N/A   Unknown
1:20 AM 28.4 °F 21.2 °F 26.6 °F 93% 30.21 in 3.7 mi North 6.9 mph - N/A   Unknown
1:50 AM 28.4 °F 22.2 °F 26.6 °F 93% 30.21 in 3.7 mi North 5.8 mph - N/A   Unknown
2:20 AM 26.6 °F 19.1 °F 24.8 °F 93% 30.21 in 3.7 mi North 6.9 mph - N/A   Unknown
2:50 AM 28.4 °F 24.6 °F 28.4 °F 100% 30.21 in 3.7 mi North 3.5 mph - N/A   Unknown
3:20 AM 26.6 °F 17.5 °F 26.6 °F 100% 30.21 in 3.7 mi NNW 9.2 mph - N/A   Unknown
3:50 AM 28.4 °F 19.7 °F 26.6 °F 93% 30.18 in 3.7 mi North 9.2 mph - N/A   Unknown
4:20 AM 28.4 °F 19.7 °F 26.6 °F 93% 30.18 in 3.7 mi North 9.2 mph - N/A   Unknown
4:50 AM 28.4 °F 24.6 °F 28.4 °F 100% 30.18 in 3.7 mi NNE 3.5 mph - N/A   Unknown
5:20 AM 28.4 °F - 26.6 °F 93% 30.18 in 3.7 mi Calm Calm - N/A   Unknown
5:50 AM 26.6 °F 21.2 °F 24.8 °F 93% 30.18 in 3.7 mi North 4.6 mph - N/A   Unknown
6:20 AM 26.6 °F 19.1 °F 26.6 °F 100% 30.18 in 3.7 mi North 6.9 mph - N/A   Unknown
6:50 AM 28.4 °F 19.7 °F 28.4 °F 100% 30.18 in 5.0 mi North 9.2 mph - N/A   Unknown
7:20 AM 30.2 °F 23.4 °F 28.4 °F 93% 30.21 in 5.0 mi North 6.9 mph - N/A   Unknown
7:50 AM 30.2 °F 22.6 °F 28.4 °F 93% 30.21 in 5.0 mi North 8.1 mph - N/A   Unknown
8:20 AM 32.0 °F 25.6 °F 28.4 °F 87% 30.21 in - North 6.9 mph - N/A   Clear
8:50 AM 32.0 °F 24.8 °F 30.2 °F 93% 30.21 in - NNW 8.1 mph - N/A   Clear
9:20 AM 35.6 °F 28.6 °F 30.2 °F 81% 30.21 in - North 9.2 mph - N/A   Clear
9:50 AM 37.4 °F 32.1 °F 30.2 °F 75% 30.21 in - North 6.9 mph - N/A   Clear
10:20 AM 41.0 °F 37.1 °F 32.0 °F 70% 30.21 in - North 5.8 mph - N/A   Clear
10:50 AM 42.8 °F 40.1 °F 32.0 °F 66% 30.21 in - North 4.6 mph - N/A   Clear
11:20 AM 44.6 °F 43.1 °F 30.2 °F 57% 30.21 in - North 3.5 mph - N/A   Clear
11:50 AM 46.4 °F 45.2 °F 30.2 °F 53% 30.18 in - NNW 3.5 mph - N/A   Clear
12:20 PM 48.2 °F - 30.2 °F 50% 30.18 in - Variable 2.3 mph - N/A   Clear
12:50 PM 50.0 °F - 28.4 °F 43% 30.15 in - Variable 2.3 mph - N/A   Clear
1:20 PM 50.0 °F - 30.2 °F 47% 30.15 in - Variable 2.3 mph - N/A   Clear
1:50 PM 51.8 °F - 30.2 °F 44% 30.12 in - Variable 1.2 mph - N/A   Clear
2:20 PM 50.0 °F - 33.8 °F 54% 30.12 in - SSE 4.6 mph - N/A   Clear
2:50 PM 46.4 °F 41.5 °F 35.6 °F 66% 30.12 in - SSE 10.4 mph - N/A   Clear
3:20 PM 46.4 °F 41.9 °F 33.8 °F 62% 30.12 in - SSE 9.2 mph - N/A   Clear
3:50 PM 44.6 °F 40.7 °F 32.0 °F 61% 30.12 in - SE 6.9 mph - N/A   Clear
4:20 PM 42.8 °F 40.1 °F 30.2 °F 61% 30.12 in - SE 4.6 mph - N/A   Clear
4:50 PM 41.0 °F - 30.2 °F 65% 30.12 in - ESE 2.3 mph - N/A   Clear
5:20 PM 41.0 °F 39.0 °F 30.2 °F 65% 30.15 in - ESE 3.5 mph - N/A   Clear
5:50 PM 35.6 °F - 30.2 °F 81% 30.12 in - Variable 2.3 mph - N/A   Clear
6:20 PM 32.0 °F 28.7 °F 28.4 °F 87% 30.12 in - North 3.5 mph - N/A   Clear
6:50 PM 28.4 °F - 24.8 °F 86% 30.12 in - Variable 1.2 mph - N/A   Clear
7:20 PM 26.6 °F - 24.8 °F 93% 30.12 in - Variable 2.3 mph - N/A   Clear
7:50 PM 26.6 °F 21.2 °F 24.8 °F 93% 30.15 in - North 4.6 mph - N/A   Clear
8:20 PM 26.6 °F - 24.8 °F 93% 30.15 in - Variable 1.2 mph - N/A   Clear
8:50 PM 26.6 °F - 23.0 °F 86% 30.15 in - Variable 2.3 mph - N/A   Clear
9:20 PM 24.8 °F - 23.0 °F 93% 30.15 in - Variable 2.3 mph - N/A   Clear
9:50 PM 26.6 °F - 24.8 °F 93% 30.15 in - Variable 2.3 mph - N/A   Clear
10:20 PM 23.0 °F - 23.0 °F 100% 30.18 in - Variable 2.3 mph - N/A   Clear
10:50 PM 30.2 °F 26.7 °F 28.4 °F 93% 30.18 in - North 3.5 mph - N/A   Clear
11:20 PM 26.6 °F - 24.8 °F 93% 30.18 in - Variable 1.2 mph - N/A   Clear
11:50 PM 23.0 °F 17.0 °F 21.2 °F 93% 30.18 in - North 4.6 mph - N/A   Clear